Back to catalog

SL-8 DEB

AliveLEO
NORAD 56997·DEBRIS·🇷🇺 Russia

Launched Oct 13, 1971 from Plesetsk Cosmodrome

Loading…

Next Passes (next 24 hours)

TLE

StaleSource: Space-Track

Epoch: Sep 2, 2026, 10:03 UTC

1 56997U 71086K   26245.41941270 -.00000011  00000-0  33283-4 0  9991
2 56997  74.0174 258.9202 0075200 191.2599 236.6523 12.27911245572778

Track SL-8 DEB in real time with AllMySat

Download on the App Store